This is the latest recevied weather packets stored in our database for station/object IZ2PAG-10. If no packets are shown the sender has not sent any weather packets the latest 10 day(s).
| Time | Temp. | Humidity | Pressure | Rain* | Wind** | Luminosity | Snow |
|---|---|---|---|---|---|---|---|
| 1777532303 | 18.89° C | 44% | 1022.7 hPa | - | - | - | - |
| 1777530502 | 19.44° C | 44% | 1022.5 hPa | - | - | - | - |
| 1777528702 | 19.44° C | 43% | 1022.3 hPa | - | - | - | - |
| 1777526902 | 19.44° C | 43% | 1022 hPa | - | - | - | - |
| 1777525166 | 19.44° C | 44% | 1021.6 hPa | - | - | - | - |
| 1777525101 | 19.44° C | 44% | 1021.6 hPa | - | - | - | - |
| 1777523300 | 18.89° C | 46% | 1021.4 hPa | - | - | - | - |
| 1777521500 | 18.89° C | 46% | 1021.1 hPa | - | - | - | - |
| 1777519699 | 19.44° C | 45% | 1020.9 hPa | - | - | - | - |
| 1777517899 | 19.44° C | 43% | 1020.9 hPa | - | - | - | - |
| 1777516098 | 19.44° C | 43% | 1021 hPa | - | - | - | - |
| 1777514298 | 19.44° C | 42% | 1021.2 hPa | - | - | - | - |
| 1777512498 | 19.44° C | 44% | 1021.1 hPa | - | - | - | - |
| 1777510698 | 19.44° C | 46% | 1020.9 hPa | - | - | - | - |
| 1777508930 | 19.44° C | 45% | 1020.9 hPa | - | - | - | - |
| 1777508898 | 19.44° C | 45% | 1020.9 hPa | - | - | - | - |
| 1777507097 | 19.44° C | 44% | 1020.6 hPa | - | - | - | - |
| 1777505297 | 19.44° C | 43% | 1020.2 hPa | - | - | - | - |
| 1777503576 | 20° C | 43% | 1020.2 hPa | - | - | - | - |
| 1777503496 | 20° C | 43% | 1020.2 hPa | - | - | - | - |
| 1777501696 | 20° C | 42% | 1019.7 hPa | - | - | - | - |
| 1777499896 | 19.44° C | 46% | 1019.2 hPa | - | - | - | - |
| 1777498096 | 19.44° C | 45% | 1019.1 hPa | - | - | - | - |
| 1777496296 | 19.44° C | 45% | 1018.9 hPa | - | - | - | - |
| 1777495576 | 19.44° C | 44% | 1018.8 hPa | - | - | - | - |
* Rain since midnight (hover to see other rain measurements)
** Current wind speed in m/s (hover to see current wind gust speed)